Location: Chapel Hill
(35.9134°N, 79.0560°W)
Time: 11:19:06
(UTC-04:00)

ACS3 Solar Sail - Pass Details

Date: 21 June 2024
Orbit: 992 x 1023 km, 97.4° (Epoch: 12 July)

Event Time Altitude Azimuth Distance (km) Brightness Sun altitude
Exits shadow 21:56:53 18° 118° (ESE) 2,234 6.1 -13.9°
Maximum altitude 22:00:31 32° 69° (ENE) 1,654 5.8 -14.5°
Drops below altitude 10° 22:05:52 10° 9° (N) 2,765 7.7 -15.2°
Sets 22:08:36 0° 0° (N) 3,716 8.6 -15.6°
